Weather Service Report


517 
ASUS41 KAKQ 301215
RWRAKQ

REGIONAL WEATHER ROUNDUP
NATIONAL WEATHER SERVICE WAKEFIELD VA
800 AM EDT TUE AUG 30 2016

Note: "fair" indicates few or no clouds below 12,000 feet with no
significant weather and/or obstructions to visibility. * = Denotes
station may not report precipitation (e.g., rain,snow,etc.),
thunder or fog.

VAZ042-051-052>054-056-301300-
NORTHERN VIRGINIA
  
CITY           SKY/WX    TMP DP  RH WIND       PRES   REMARKS
WASH NATIONAL  FAIR      76  61  59 NE10      30.15R                  
DULLES         FAIR      73  61  65 N7        30.16R                  
FORT BELVOIR   FAIR      74  64  71 CALM      30.14R                  
QUANTICO       FAIR      76  65  68 N3        30.15R                  
FREDERICKSBRG* FAIR      74  70  87 N3        30.14R                  
STAFFORD*      FAIR      72  66  80 CALM      30.19R                  
WARRENTON      FAIR      73  60  64 CALM      30.16R                  
CULPEPER*      PTSUNNY   71  66  86 CALM      30.17R                  
MANASSAS*      SUNNY     73  64  73 N6        30.15R                  
LEESBURG*      FAIR      72  64  78 N8        30.18R                  
WINCHESTER     PTSUNNY   70  63  78 CALM      30.19R                  
FRONT ROYAL*   FAIR      66  64  94 CALM      30.18R                  
LURAY*         FAIR      68  68 100 CALM      30.19R                  
$$

VAZ048-049-060>072-079>083-301300-
CENTRAL AND SOUTH CENTRAL VIRGINIA
  
CITY           SKY/WX    TMP DP  RH WIND       PRES   REMARKS
RICHMOND       FAIR      74  67  78 N8        30.13R                  
CHESTERFIELD*  FAIR      73  55  53 N3        30.15R                  
PETERSBURG*    FAIR      74  68  80 N6        30.13R                  
HANOVER        PTSUNNY   72  66  81 MISG      30.15R                  
TAPPAHANNOCK*  FAIR      73  73  98 CALM      30.14R                  
QUINTON*       FAIR      70  67  91 CALM      30.12R                  
CHARLOTTSVILLE FAIR      73  67  81 CALM      30.17R                  
GORDONSVILLE*  FAIR      73  64  73 MISG      30.15R                  
ORANGE*          N/A     73  63  68 CALM      30.18R                  
LOUISA*        FAIR      73  70  88 N6        30.15R                  
BUMPASS*       FAIR      72  70  92 CALM      30.15R                  
FARMVILLE*     FAIR      74  73  96 N5        30.13R                  
CREWE*         FAIR      72  72  98 N5        30.13R                  
FORT PICKETT*  FAIR      72  70  91 N5        30.13R                  
CHASE CITY*    FAIR      71  66  83 CALM      30.14R                  
CLARKSVILLE*   FAIR      70  68  94 N3        30.13R                  
SOUTH HILL*    FAIR      69  65  88 N3        30.19R                  
LAWRENCEVILLE* FAIR      72  66  81 CALM      30.13R                  
EMPORIA*       FAIR      68  64  88 CALM      30.13R                  
$$

VAZ088>098-301300-
SOUTHEAST VIRGINIA
  
CITY           SKY/WX    TMP DP  RH WIND       PRES   REMARKS
NORFOLK        FAIR      79  71  76 NE8       30.09S                  
VIRGINIA BEACH FAIR      78  72  81 NE5       30.08S                  
NORFOLK NAVAL  FAIR      81  69  67 NE6       30.11R                  
WEST POINT*    FAIR      71  67  88 CALM      30.13R                  
SALUDA*        FAIR      76  73  88 N7        30.11R                  
NEWPORT NEWS   FAIR      76  72  87 CALM      30.11R                  
LANGLEY AFB    MOSUNNY   77  72  85 N3        30.10R                  
FORT EUSTIS    FAIR      77  70  77 N5        30.08R                  
WILLIAMSBURG*  FAIR      73  72  94 N5        30.11S                  
HR EXEC AP*    FAIR      70  68  94 CALM      30.12S                  
FRANKLIN*      FAIR      70  67  88 CALM      30.11S                  
US460-WAKEFLD  FAIR      72  68  87 CALM      30.11R                  
$$

VAZ020-022-025-037-045-301300-
WEST CENTRAL AND SOUTHWEST VIRGINIA
  
CITY           SKY/WX    TMP DP  RH WIND       PRES   REMARKS
STAUNTON*      PTSUNNY   66  65  94 CALM      30.22R                  
WAYNESBORO*    FAIR      66  65  96 CALM      30.21R                  
HOT SPRINGS VA PTSUNNY   66  60  78 E6        30.29R                  
LYNCHBURG      FAIR      74  69  85 N5        30.18R                  
DANVILLE       FAIR      71  68  90 CALM      30.14R                  
SOUTH BOSTON*  FAIR      67  66  94 CALM      30.14R                  
MARTINSVILLE   FAIR      65  64  96 CALM      30.18R                  
ROANOKE        FAIR      71  68  90 NW5       30.19S                  
BLACKSBURG     FAIR      67  66  99 CALM      30.25R FOG              
DUBLIN*        FAIR      66  66  99 CALM      30.24R FOG              
MARION*        FAIR      65  63  94 CALM      30.26S                  
HILLSVILLE*    FOG       62  62 100 CALM      30.23S VSB 1/2          
RICHLANDS*     FAIR      71  65  83 CALM      30.23S                  
WISE*          FAIR      68  64  88 CALM      30.24R                  
ABINGDON*      FAIR      70  66  85 E7        30.21R                  
$$

MDZ021>025-VAZ099-100-301300-
SOUTHERN MARYLAND AND THE DELMARVA PENINSULA
  
CITY           SKY/WX    TMP DP  RH WIND       PRES   REMARKS
PATUXENT RIVER FAIR      76  65  68 NE7       30.13R                  
BAY BRIDGE APT FAIR      75  63  64 E10G17    30.14R                  
LEONARDTOWN      N/A     73  64  73 CALM      30.15R                  
DOVER          FAIR      72  70  92 N6        30.13R                  
GEORGETOWN     FAIR      75  69  81 NE6       30.13R                  
EASTON         SUNNY     72  66  83 NE6       30.17R                  
CAMBRIDGE      FAIR      72  63  73 NE6       30.12R                  
SALISBURY      FAIR      73  70  90 NE3       30.12R                  
OCEAN CITY     FAIR      76  72  87 N3        30.12R                  
WALLOPS ISLAND FAIR      77  70  79 CALM      30.11R                  
ACCOMACK*      FAIR      74  68  81 CALM      30.11R                  
$$

NCZ012>017-030>032-301300-
NORTH CENTRAL AND EASTERN NORTH CAROLINA
  
CITY           SKY/WX    TMP DP  RH WIND       PRES   REMARKS
ROANOKE RAPIDS FAIR      70  66  88 CALM      30.11S                  
RALEIGH        FAIR      72  67  84 NE3       30.12R                  
ELIZABETH CITY FAIR      75  72  90 N8        30.08S                  
AHOSKIE*       FAIR      70  67  89 N3        30.11R                  
EDENTON*       FAIR     N/A N/A N/A N5        30.08S                  
CURRITUCK*       N/A     78  75  89 NE7       30.09R                  
KILL DEVIL HLS FAIR      80  78  94 NE8       30.05R                  
MANTEO         PTSUNNY   79  77  94 NE12      30.06R                  
CAPE HATTERAS  LGT RAIN  78  76  93 E7        30.02R                  
TARBORO*       FAIR      71  67  88 N5        30.11R                  
GOLDSBORO      FAIR      69  69 100 N6        30.07R                  
WASHINGTON     FAIR      70  69  97 N8        30.08R                  
GREENVILLE     FAIR      68  68 100 N3        30.11R                  
NEW BERN       FAIR      73  71  93 N5        30.07R                  
WILMINGTON     FAIR      72  70  93 N3        30.06R                  
$$

VAZ048-301300-
ELSEWHERE
  
CITY           SKY/WX    TMP DP  RH WIND       PRES   REMARKS
HARRISBURG PA  FAIR      70  62  76 CALM      30.18R                  
BALTIMORE      FAIR      75  60  59 N8        30.15R                  
ANNAPOLIS      FAIR      77  64  64 NE9       30.15R                  
ANDREWS AFB    FAIR      72  61  68 NE9       30.14R                  
PHILADELPHIA   FAIR      74  60  61 NE10      30.15S                  
HENDERSON NC   FAIR      67  63  87 N3        30.13R                  
GREENSBORO     FAIR      72  67  84 NE5       30.14R                  
ROCKY MOUNT    FAIR      72  67  84 N6        30.11R                  
$$

VAZ100-301300-
MARINE
  
STATION/POSITION TIME  TEMP    WIND        PRES    WAVE   SWELL
                       AIR SEA DIR/SP/G            HT/PER HT/PER
                 (UTC) (F)     (DEG/KT/KT) (MB)    (FT/S) (FT/S)
BRANDYWINE LGT   1100   73      50/ 15/ 16   N/A
CAPE MAY NJ      1100   71 76   50/  2/  5 1019.1R
LEWES DE         1100   74 76   50/  7/  8 1019.4R
OCEAN-CITY-INLET 1100   75 77  360/  3/  3 1019.8R
WACHAPREAGUE VA  1100   72 81   CALM  /  1 1019.2R
THOMAS POINT MD  1200   75 82   50/ 10/ 12 1022.2R
GOOSES REEF MD   1100   77 82   50/ 14/ 16 1020.2R   2/ 3
COVE POINT MD    1100   75      40/ 12/ 15 1020.3R
SOLOMONS ISLAND  1100   76 84   20/  5/  8   N/A
BISHOPS HEAD MD  1100   74 82   20/  8/ 11 1019.7R
PINEY POINT MD   1100           60/  9/ 14   N/A
POTOMAC MD       1100   78 83   40/ 14/ 16 1018.4R   1
CAMBRIDGE MD     1100   74 84   40/  9/ 12 1018.9R
LEWISETTA VA     1100   78 84   50/  8/ 12 1019.1R
RAPPAHANNOCK LGT 1100          340/  4/  5 1019.4R
STINGRAY PT      1100   81 84  330/ 10/ 12 1019.2R   1
YORK RVR RNG VA  1100   78     360/  8/ 10 1018.4R
YORKTOWN VA      1100   77 83  340/  7/  9 1018.6R
JAMESTOWN VA     1100   74 84  340/  4/  6   N/A     0
DOMINION TERM VA 1100   76      20/  3/  5 1019.1R
KIPTOPEKE VA     1100      80   60/  4/  5   N/A
CHES BAY BRIDGE  1100   79 80   30/  9/ 10 1018.8R
CAPE HENRY VA    1100   78      40/  9/ 10   N/A
WILLOUBY STN VA  1100   78      10/  5/  5   N/A
CAPE HENRY BUOY  1112      80                N/A     4/13   2/13
1ST LANDING BUOY 1100   79 80   70/  8/ 10 1018.6R   3/ 5
CAPE CHARLES BUO 1126      79                N/A     4/12   3/12
OFFSHORE WE BUOY 1121      80                N/A     5/13   3/13
64NM E OF VA BCH 1150   80 80   60/ 14/ 16 1017.8R   5/12   5/12
DUCK PIER NC     1100   79 79   40/ 15/ 16 1017.3R
44100 DUCK FRF   1105      80                N/A     4/12   2/12
44056 DUCK FRF   1111      79                N/A     4/13   3/13
OREGON INLET NC  1100   78 81   40/ 10/ 14 1017.0R
HATTERAS NC      1100   80 82   30/ 12/ 15 1015.9S
DIAMOND SHLS NC  1150   80 84  100/ 19/ 25 1015.9    6/13   5/13
CAPE LOOKOUT NC  1200   79     350/ 10/ 13 1016.0R
$$
  

Return to Home page


Western Regional Climate Center, wrcc@dri.edu